Tracking 22779 objects as of 10-Apr-2021
HD Live streaming from Space Station
objects crossing your sky now

KAITUO 1A

Track KAITUO 1A now!
10-day predictions
KAITUO 1A is classified as:


NORAD ID: 40904
Int'l Code: 2015-049F
Perigee: 513.7 km
Apogee: 536.0 km
Inclination: 97.5 °
Period: 95.0 minutes
Semi major axis: 6895 km
RCS: Unknown
Launch date: September 19, 2015
Source: People's Republic of China (PRC)
Launch site: Taiyaun Space Center, China (TSC)
aabbcc
Your satellite tracking list
Your tracking list is empty




NASA's NSSDC Master Catalog

Two Line Element Set (TLE):
1 40904U 15049F   21100.23369389  .00000508  00000-0  29775-4 0  9990
2 40904  97.4869 102.9752 0016172  75.5934 340.8274 15.16085988307209
Source of the keplerian elements: AFSPC